Los Angeles, CA

12:17 AM PDT on April 23, 2017 (GMT -0700)
Los Angeles International

Weather History for KLAX - May, 2014

Change the Weather History Date:

Saturday, May 17, 2014

  Actual Average Record
Temperature  
Mean Temperature 70 °F 63 °F  
Max Temperature 77 °F 68 °F 89 °F (2008)
Min Temperature 63 °F 58 °F 50 °F (1962)
Degree Days  
Heating Degree Days 0 3  
Month to date heating degree days 17 56  
Since 1 July heating degree days 755 1364  
Cooling Degree Days 5 0  
Month to date cooling degree days 119 4  
Year to date cooling degree days 182 30  
Growing Degree Days 20 (Base 50)    
Moisture  
Dew Point 58 °F    
Average Humidity 74    
Maximum Humidity 87    
Minimum Humidity 61    
Precipitation  
Precipitation 0.00 in 0.01 in 0.25 in (2011)
Month to date precipitation 0.00 0.15  
Year to date precipitation 3.41 8.66  
Since 1 July precipitation 4.45  
Sea Level Pressure  
Sea Level Pressure 29.89 in    
Wind  
Wind Speed 6 mph (SW)    
Max Wind Speed 15 mph    
Max Gust Speed 18 mph    
Visibility 7 miles    
Events      
T = Trace of Precipitation, MM = Missing Value Source: NWS Daily Summary

Daily Weather History Graph

Daily Weather History Graph

Search for Another Location

Airport or City:

Trip Planner

Search our weather history database for the weather conditions in past years. The results will help you decide how hot, cold, wet, or windy it might be!

Date:

Astronomy

May. 17, 2014 Rise Set
Actual Time 5:50 AM PDT 7:49 PM PDT
Civil Twilight 5:23 AM PDT 8:17 PM PDT
Nautical Twilight 4:49 AM PDT 8:51 PM PDT
Astronomical Twilight 4:13 AM PDT 9:27 PM PDT
Moon 10:55 PM PDT (5/17) 8:38 AM PDT (5/17)
Length of Visible Light 14h 54m
Length of Day
13h 58m
Waning Gibbous, 88% of the Moon is Illuminated
May 17
Waning Gibbous
May 21
Last Quarter
May 28
New
Jun 5
First Quarter
Jun 12
Full

Hourly Weather History & Observations

Time (PDT) Temp. Dew Point Humidity Pressure Visibility Wind Dir Wind Speed Gust Speed Precip Events Conditions
12:53 AM 66.9 °F 55.9 °F 68% 29.90 in 10.0 mi SSW 3.5 mph - N/A   Mostly Cloudy
1:53 AM 66.0 °F 57.0 °F 73% 29.89 in 10.0 mi Calm Calm - N/A   Mostly Cloudy
2:53 AM 64.9 °F 57.0 °F 75% 29.88 in 10.0 mi Calm Calm - N/A   Scattered Clouds
3:53 AM 64.9 °F 55.9 °F 73% 29.88 in 10.0 mi Calm Calm - N/A   Scattered Clouds
4:53 AM 64.0 °F 55.9 °F 75% 29.87 in 10.0 mi Calm Calm - N/A   Scattered Clouds
5:53 AM 64.0 °F 55.9 °F 75% 29.88 in 9.0 mi Calm Calm - N/A   Scattered Clouds
6:53 AM 66.0 °F 57.0 °F 73% 29.89 in 9.0 mi ESE 5.8 mph - N/A   Scattered Clouds
7:38 AM 64.4 °F 59.0 °F 83% 29.91 in 2.5 mi SSE 5.8 mph - N/A   Haze
7:53 AM 64.4 °F 60.8 °F 88% 29.91 in 2.5 mi Variable 5.8 mph - N/A   Mostly Cloudy
8:07 AM 64.4 °F 60.8 °F 88% 29.91 in 2.0 mi ESE 4.6 mph - N/A   Haze
8:28 AM 66.2 °F 60.8 °F 83% 29.92 in 2.5 mi SSE 6.9 mph - N/A   Haze
8:43 AM 66.2 °F 60.8 °F 83% 29.92 in 3.0 mi Variable 4.6 mph - N/A   Haze
8:53 AM 68.0 °F 60.8 °F 78% 29.91 in 3.0 mi SSE 5.8 mph - N/A   Haze
9:53 AM 71.6 °F 59.0 °F 64% 29.91 in 6.0 mi Calm Calm - N/A   Haze
10:53 AM 73.9 °F 60.1 °F 62% 29.91 in 8.0 mi WSW 10.4 mph - N/A   Scattered Clouds
11:07 AM 71.6 °F 60.8 °F 69% 29.92 in 8.0 mi West 11.5 mph - N/A   Scattered Clouds
11:53 AM 72.0 °F 60.1 °F 66% 29.91 in 8.0 mi West 10.4 mph - N/A   Scattered Clouds
12:53 PM 73.0 °F 60.1 °F 64% 29.90 in 8.0 mi West 10.4 mph - N/A   Scattered Clouds
1:53 PM 73.0 °F 59.0 °F 61% 29.89 in 9.0 mi WSW 13.8 mph - N/A   Scattered Clouds
2:53 PM 71.1 °F 60.1 °F 68% 29.89 in 8.0 mi WSW 11.5 mph - N/A   Mostly Cloudy
3:53 PM 69.1 °F 59.0 °F 70% 29.87 in 9.0 mi West 12.7 mph - N/A   Mostly Cloudy
4:53 PM 68.0 °F 59.0 °F 73% 29.86 in 6.0 mi WSW 11.5 mph - N/A   Haze
5:53 PM 68.0 °F 57.0 °F 68% 29.85 in 9.0 mi West 9.2 mph - N/A   Mostly Cloudy
6:53 PM 66.0 °F 57.0 °F 73% 29.84 in 9.0 mi WSW 8.1 mph - N/A   Mostly Cloudy
7:53 PM 66.9 °F 54.0 °F 63% 29.84 in 10.0 mi West 6.9 mph - N/A   Mostly Cloudy
8:53 PM 66.0 °F 53.1 °F 63% 29.86 in 10.0 mi West 10.4 mph - N/A   Scattered Clouds
9:53 PM 64.0 °F 57.9 °F 80% 29.87 in 8.0 mi West 5.8 mph - N/A   Scattered Clouds
10:13 PM 62.6 °F 57.2 °F 82% 29.88 in 6.0 mi SW 4.6 mph - N/A   Haze
10:53 PM 63.0 °F 57.9 °F 84% 29.88 in 7.0 mi WSW 4.6 mph - N/A   Scattered Clouds
11:53 PM 64.0 °F 59.0 °F 84% 29.88 in 7.0 mi Calm Calm - N/A   Partly Cloudy